Tracking 20945 objects as of 9-Jul-2020
HD Live streaming from Space Station
objects crossing your sky now

COSMOS 2251 DEB

Track COSMOS 2251 DEB now!
10-day predictions


NORAD ID: 37277
Int'l Code: 1993-036BHR
Perigee: 714.9 km
Apogee: 760.6 km
Inclination: 74.0 °
Period: 99.4 minutes
Semi major axis: 7108 km
RCS: 0.0067 m2 (small)
Launch date: June 16, 1993
Source: Commonwealth of Independent States (former USSR) (CIS)
Launch site: PLESETSK MISSILE AND SPACE COMPLEX (PKMTR)

Note: This is SATELLITE DEBRIS
aabbcc
Your satellite tracking list
Your tracking list is empty




NASA's NSSDC Master Catalog

Two Line Element Set (TLE):
1 37277U 93036BHR 20188.88620722 +.00000578 +00000-0 +16053-3 0  9999
2 37277 074.0441 257.7607 0032137 065.8660 294.5855 14.48470243300131
Source of the keplerian elements: AFSPC